Regional Weather Roundup
Issued by NWS Upton, NY

Current Version | Previous Version | Graphics & Text | Print | Product List | Glossary Off
Versions: 1 2 3 4 5 6 7 8 9 10 11 12 13 14 15 16 17 18 19 20 21 22 23 24 25 26 27 28 29 30 31 32 33 34 35 36 37 38 39 40 41 42 43 44 45 46 47 48 49 50

000
ASUS41 KOKX 310404
RWROKX

REGIONAL WEATHER ROUNDUP
NATIONAL WEATHER SERVICE NEW YORK NY
1200 AM EDT FRI JUL 31 2015

NOTE: "FAIR" INDICATES FEW OR NO CLOUDS BELOW 12,000 FEET WITH NO
SIGNIFICANT WEATHER AND/OR OBSTRUCTIONS TO VISIBILITY.

NYZ071-072-176-178-NJZ106-104-310500-
NEW YORK CITY METRO AREA


CITY           SKY/WX    TMP DP  RH WIND       PRES   REMARKS
CENTRAL PARK   CLEAR     77  72  84 VRB5      29.87S HAZE
LAGUARDIA APRT MOCLDY    79  72  79 CALM      29.83S
KENNEDY INTL   MOCLDY    77  73  87 SW8       29.85R
NEWARK/LIBERTY MOCLDY    76  73  91 SW6       29.84S
BRNX BOT. GARD   N/A     77  72  83 SW6       29.85F
TETERBORO      MOCLDY    75  71  87 SW5       29.83S
$$

NYZ177-179-078>081-310500-
LONG ISLAND NEW YORK

CITY           SKY/WX    TMP DP  RH WIND       PRES   REMARKS
FARMINGDALE    PTCLDY    76  73  91 W5        29.84S
ISLIP          CLOUDY    75  73  93 W6        29.82S
SHIRLEY        MOCLDY    76  74  93 SW5       29.84S
WESTHAMPTON    CLOUDY    76  74  93 SW8       29.84F
MONTAUK POINT    N/A     76  72  87 W7        29.84S
$$

NYZ052-065-067-310500-
HUDSON VALLEY

CITY           SKY/WX    TMP DP  RH WIND       PRES   REMARKS
WHITE PLAINS   CLEAR     74  72  93 NW3       29.84S FOG
NEWBURGH       CLEAR     72  70  94 CALM      29.86S
MONTGOMERY     PTCLDY    66  66 100 NW3       29.85R
POUGHKEEPSIE   FOG       71  69  93 CALM      29.82S VSB 1/2
ALBANY         PTCLDY    69  62  78 SW6       29.82F
$$

NJZ001-105-106-008-010-013-015-019>022-104-310500-
NEW JERSEY

CITY           SKY/WX    TMP DP  RH WIND       PRES   REMARKS
NEWARK/LIBERTY MOCLDY    76  73  91 SW6       29.84S
TETERBORO      MOCLDY    75  71  87 SW5       29.83S
CALDWELL       CLEAR     75  72  90 CALM      29.85R
MORRISTOWN     FOG       72  68  88 CALM      29.85S VSB 1/4
SOMERVILLE     FOG       71  69  93 CALM      29.84S VSB 1/4
SUSSEX         CLEAR     70  68  93 W3        29.87R
ANDOVER          N/A     71  71 100 CALM      29.88R
TRENTON        CLEAR     75  72  90 SW6       29.86R FOG
MILLVILLE      MOCLDY    75  73  93 W5        29.89R FOG
ATLANTIC CITY  MOCLDY    76  73  91 SW6       29.88R
WRIGHTSTOWN    MOCLDY    74  74 100 W7        29.84S
TOMS RIVER       N/A     73  73 100 W7        29.86S
BELMAR         PTCLDY    73  70  88 W5        29.86R
$$

PAZ047>061-062-071-310500-
EASTERN PENNSYLVANIA

CITY           SKY/WX    TMP DP  RH WIND       PRES   REMARKS
PHILADELPHIA   MOCLDY    79  73  83 W9        29.88R
ALLENTOWN      PTCLDY    70  65  84 SW6       29.88R
SCRANTON       CLEAR     69  62  78 SE3       29.91R
$$

CTZ002-004>006-009-010-012-RIZ004-006-007-MAZ004-011-015-310500-
SOUTHERN NEW ENGLAND
 IN CT

CITY           SKY/WX    TMP DP  RH WIND       PRES   REMARKS
BRADLEY INTL   PTCLDY    73  70  90 SW5       29.81S
HARTFORD       MOCLDY    74  73  97 S3        29.81S
DANBURY        PTCLDY    74  71  91 CALM      29.86R FOG
WTRBRY/OXFORD  CLOUDY    75  70  83 CALM      29.86S
BRIDGEPORT     CLOUDY    77  73  87 W7        29.82S
MERIDEN        CLOUDY    75  73  93 CALM      29.82S FOG
NEW HAVEN      CLOUDY    75  73  93 SW3       29.82S FOG
CHESTER        CLOUDY    73  73 100 W3        29.84S FOG
GROTON         CLOUDY    72  71  97 SW7       29.82R
WILLIMANTIC    PTCLDY    74  71  91 CALM      29.82S

 IN RI

CITY           SKY/WX    TMP DP  RH WIND       PRES   REMARKS
PROVIDENCE     CLOUDY    75  72  90 SW5       29.81F
BLOCK ISLAND     N/A     73  72  94 SW14      29.84S
WESTERLY       CLOUDY    74  72  93 SW3       29.83R

 IN MA

CITY           SKY/WX    TMP DP  RH WIND       PRES   REMARKS
BOSTON         MOCLDY    74  72  93 SW14      29.79S
WORCESTER      PTCLDY    70  68  93 W8        29.84F
WESTFIELD      FOG       72  71  97 CALM      29.82S VSB 1/4
PROVINCETOWN   CLOUDY    72  64  78 SW13      29.80F
NANTUCKET      CLOUDY    71  69  93 S7        29.83F
$$

ANZ330-335-338-340-345-350-353-355-310500-
COASTAL MARINE OBSERVATIONS


STATION/POSITION TIME  SKY/WX   TEMP    WIND        PRES    VSBY  WAVE
                                AIR SEA DIR/SP/G                  HT/PER
                 (UTC)          (F)     (DEG/KT/KT) (MB)    (MI)  (FT/S)
NY HARB ENTRANCE 0250            76 76  230/ 10/ 12 1010.0          3/ 6
4S FIRE IS       NOT AVBL
20S FIRE ISLAND  0250            77 75  230/ 12/ 14 1010.1          4/ 6
GREAT SOUTH BAY  0330            77 81  260/ 14/ 17   N/A
23SW MTP         0350            76 74  230/ 14/ 16 1009.4          4/ 6
HUDSON CANYON    NOT AVBL
KINGS POINT      0300            75 70  190/  5/  6 1009.6
EXECUTION ROCKS  0300            74     220/  4/  4   N/A
CENTRAL LI SOUND NOT AVBL
EASTERN LI SOUND 0300            72 69  260/  6/ 10   N/A
ROBBINS REEF     0300            77     250/  5/  6 1009.3
$$


>>>>>>>>>>>>>>>>>>>>>>>>>>>> KEY <<<<<<<<<<<<<<<<<<<<<<<<<<<
>                                                          <
>     SKY/WX - SKY CONDITION/PRESENT WEATHER               <
>     TMP    - TEMPERATURE IN FAHRENHEIT                   <
>     DP     - DEWPOINT IN FAHRENHEIT                      <
>     RH     - RELATIVE HUMIDITY IN PERCENT                <
>     WIND   - DIRECTION AND SPEED IN MPH                  <
>     PRES   - MEAN SEA LEVEL PRESSURE IN INCHES OF HG     <
>     WCI    - WIND CHILL INDEX                            <
>     VSB    - VISIBILITY IN MILES                         <
>     HX     - HEAT INDEX                                  <
>     TC     - TEMPERATURE IN CELSIUS                      <
>     VRB    - VARIABLE WIND DIRECTION                     <
>                                                          <
>>>>>>>>>>>>>>>>>>>>>>>>>>>> KEY <<<<<<<<<<<<<<<<<<<<<<<<<<<




USA.gov is the U.S. government's official web portal to all federal, state and local government web resources and services.